Terminal Aerodrome Forecast
Issued by NWS Rapid City, SD

Home | Current Version | Previous Version | Graphics & Text | Print | Product List | Glossary On
Versions: 1 2 3 4 5 6 7 8 9 10 11 12 13 14 15 16 17 18 19 20 21 22 23 24 25 26 27 28 29 30 31 32
338
FTUS43 KUNR 120711 AAA
TAFRAP
TAF AMD
KRAP 120711Z 1207/1306 04006KT P6SM OVC007
     FM120900 02006KT 1/2SM FZFG VV002
     FM121700 13012KT 4SM BR OVC008=

USA.gov is the U.S. government's official web portal to all federal, state and local government web resources and services.